Temperature
19 17 17 17 18 19 19 20 19 19 20 20 19 19 19 19 19 19 19 19 20 20 20 20 20 20 19 19 19 19 18 18 18 17 17 17 16 16 16 16 16 16 16 16
17 17 18 18 18 19 19 19 19 19 20 20 19 18 18 18 18 18 18 19 19 19 19 19 20 19 19 19 19 19 18 18 18 17 17 17 16 16 16 16 16 16 16 16
18 18 19 19 19 19 19 19 19 19 19 19 19 18 18 18 18 18 18 19 19 19 19 19 19 19 19 19 19 18 18 18 18 17 17 16 16 16 16 16 16 15 15 15
18 19 19 19 19 19 18 19 19 19 18 17 19 18 18 17 17 17 17 18 18 19 19 19 19 19 19 19 19 18 18 18 17 17 17 16 16 16 16 16 15 15 15 15
18 19 19 19 20 19 19 20 19 19 18 17 17 17 17 17 17 17 17 17 18 18 19 19 19 19 19 19 18 18 18 17 17 17 16 16 16 16 15 15 15 15 15 15
19 19 20 20 20 20 20 19 17 15 16 17 17 17 17 16 17 17 17 17 18 18 18 18 19 18 18 18 18 17 17 17 17 16 16 16 16 15 15 15 15 15 15 15
19 19 20 20 20 19 19 17 17 17 15 16 17 17 16 17 17 17 17 17 18 18 18 18 18 18 18 18 17 17 17 17 16 16 16 16 15 15 15 15 15 15 15 15
18 18 19 20 19 18 18 17 17 17 16 16 16 16 17 17 17 17 17 17 17 18 18 18 18 18 18 18 17 17 17 16 16 16 16 15 15 15 15 15 15 15 14 14
17 18 19 20 20 19 18 16 16 15 16 16 16 16 17 17 17 16 16 17 17 17 18 18 18 18 18 17 17 17 17 16 16 16 15 15 15 15 15 14 14 14 14 14
17 18 19 19 19 18 17 16 14 15 16 16 17 17 16 17 16 16 16 16 16 17 17 18 17 17 17 17 17 17 16 16 16 16 15 15 15 15 14 14 14 14 14 14
17 17 18 18 18 18 17 16 15 13 14 15 16 16 17 16 16 15 15 16 16 16 17 17 17 17 17 16 16 16 16 16 16 15 15 15 14 14 14 14 14 14 14 14
16 15 16 17 18 18 17 16 15 16 15 14 14 15 17 16 16 15 15 16 16 16 17 17 17 17 16 16 16 16 16 16 16 15 15 15 14 14 14 14 14 14 14 13
15 14 15 17 17 17 17 16 15 14 13 13 14 16 16 15 15 15 15 15 15 16 16 16 16 16 16 16 16 16 16 15 15 15 15 14 14 14 14 14 13 13 13 13
15 13 15 16 16 16 16 16 15 14 14 14 14 15 15 15 15 14 15 15 15 15 16 16 16 16 16 16 16 16 16 15 15 15 14 14 14 14 14 14 13 13 13 13
14 14 15 15 16 16 16 16 16 15 15 15 15 15 15 14 14 14 14 14 14 14 15 15 15 15 15 15 15 16 15 15 15 14 14 14 14 14 14 13 13 13 13 13
12 14 15 15 16 16 16 16 16 16 15 15 15 15 14 14 14 14 14 14 14 14 14 15 15 15 15 15 15 15 15 15 14 14 14 14 14 14 13 13 13 13 13 12
11 13 13 14 15 16 15 15 15 15 14 14 14 14 13 13 13 13 13 13 14 14 14 14 15 15 15 15 15 15 15 14 14 14 13 13 13 13 13 13 13 13 12 12
11 11 11 12 14 15 14 14 14 14 13 13 13 13 13 13 13 13 13 13 14 14 14 14 14 14 14 14 14 14 14 14 13 13 13 13 13 13 13 12 12 12 12 12
10 11 11 11 13 14 14 14 13 13 13 12 12 12 12 13 13 13 13 13 14 14 14 14 14 14 14 14 14 14 14 13 13 13 13 13 13 13 12 12 12 12 12 12
10 10 11 11 13 14 13 13 13 13 13 12 12 11 11 12 12 12 13 13 13 13 14 14 14 14 14 14 13 13 13 13 13 13 13 13 13 13 12 12 12 12 12 12
11 10 11 11 12 12 12 12 13 13 13 12 12 11 11 11 12 13 12 13 13 13 14 14 14 14 14 13 13 13 13 13 13 12 12 12 12 12 12 12 12 12 12 12
10 10 10 10 12 12 12 12 12 11 12 12 12 12 12 12 12 12 12 13 13 13 13 14 14 14 13 13 13 13 13 13 12 12 12 12 12 12 12 12 12 12 11 11
10 10 9 10 11 11 11 11 12 12 12 12 12 12 12 12 12 12 12 12 12 13 13 13 13 13 13 13 13 12 12 12 12 12 12 12 12 12 12 12 12 12 11 11
9 9 9 9 10 10 11 12 12 12 12 12 12 12 12 12 12 12 12 12 12 12 12 12 13 13 13 13 12 12 12 12 12 12 12 12 12 12 12 12 12 12 12 11
9 8 9 9 10 10 11 11 11 12 12 12 12 12 12 12 11 11 11 11 11 12 12 12 12 12 12 12 12 12 12 12 12 12 12 12 12 12 12 12 12 12 12 12
8 8 9 9 10 9 10 11 11 12 12 12 12 11 11 11 11 11 11 11 11 11 11 11 11 11 11 11 11 12 12 12 11 11 12 12 12 11 11 11 11 11 11 12
Wind_Speed
3 4 3 7 7 5 4 3 4 6 3 1 4 5 5 3 3 3 4 6 7 7 5 5 6 6 7 6 7 6 5 4 5 3 3 2 1 1 1 1 1 2 2 3
4 3 8 5 5 4 3 2 4 5 2 2 2 4 4 3 3 4 5 6 8 6 4 4 5 6 7 7 7 6 6 5 4 4 3 2 2 1 1 0 1 1 2 2
6 6 3 5 4 4 4 5 5 4 4 2 0 4 4 3 1 2 2 3 5 8 8 7 6 7 7 7 8 7 6 5 4 4 3 3 2 2 1 1 0 0 1 2
5 5 3 4 4 6 6 7 6 4 0 3 1 3 6 4 3 3 3 3 5 6 7 7 7 7 7 7 7 6 6 5 4 5 5 5 3 2 2 1 1 1 0 1
5 3 4 5 6 7 6 3 4 3 3 1 1 2 7 3 4 6 5 4 5 6 6 6 6 7 6 6 6 6 6 5 4 5 5 5 3 2 1 1 1 0 0 0
5 3 4 5 3 4 3 5 5 5 4 1 3 3 6 4 6 5 3 5 5 4 4 5 4 5 4 5 5 6 6 5 5 5 4 4 4 2 2 2 2 1 1 0
4 3 3 2 1 1 4 5 3 4 3 5 3 3 7 6 5 5 5 5 5 5 4 5 5 6 6 6 6 6 6 5 5 5 4 4 4 4 4 3 3 2 1 1
2 5 4 3 5 5 5 8 7 5 5 4 1 5 6 4 3 3 3 3 4 4 4 5 6 6 6 7 7 6 6 5 4 4 3 2 3 3 2 2 3 3 2 2
5 5 4 3 2 7 5 4 6 6 3 1 4 5 5 2 2 1 1 2 3 4 4 5 4 5 5 6 7 8 7 5 4 4 3 2 2 2 2 1 1 2 2 2
5 3 4 2 4 3 6 7 5 5 5 3 4 4 4 4 4 2 2 2 2 2 3 4 4 4 4 4 5 6 7 7 5 4 4 3 2 2 1 1 1 1 1 1
3 3 3 2 2 3 3 4 5 4 4 5 3 6 4 6 5 5 4 3 4 4 5 4 4 4 4 3 4 5 6 5 4 4 3 3 2 1 1 1 2 2 1 1
3 4 1 3 3 2 4 5 6 5 4 4 4 6 4 3 2 3 3 3 2 2 4 4 4 4 4 4 4 5 5 5 5 5 4 3 2 2 1 1 1 1 1 2
3 4 1 3 3 3 2 2 4 5 4 5 4 6 2 2 1 0 2 2 1 1 3 3 3 3 4 4 3 3 4 5 5 5 4 3 3 2 2 2 1 1 1 2
3 3 5 7 6 3 1 2 4 5 4 5 7 7 5 4 3 3 1 1 2 2 3 4 3 3 3 4 4 4 3 4 5 5 5 4 4 3 3 2 1 1 1 2
3 2 2 3 3 3 3 3 4 5 6 7 6 6 7 5 4 3 2 1 1 1 2 4 4 4 3 3 3 3 3 3 4 4 5 5 4 3 2 2 1 1 1 2
3 3 1 1 1 2 2 3 4 4 3 4 4 6 4 3 1 1 2 2 3 3 3 3 4 4 4 4 4 3 3 3 3 4 4 4 3 3 2 2 2 2 1 1
1 3 2 2 2 1 3 4 4 3 2 3 4 5 3 3 2 3 4 4 4 4 4 4 4 4 4 4 4 4 3 2 3 4 3 3 3 3 2 2 2 2 1 1
4 3 3 1 1 4 3 1 2 3 1 0 2 4 3 4 4 3 3 4 4 4 4 4 4 3 3 2 2 3 2 2 3 3 3 3 3 3 3 2 2 2 1 2
4 5 3 3 2 3 2 1 0 1 2 2 2 3 4 4 3 3 3 3 4 5 5 4 4 3 2 2 2 2 2 2 2 3 4 3 3 4 4 3 3 2 2 1
4 3 4 3 3 4 3 4 3 1 2 3 3 3 3 2 2 5 5 3 3 3 3 2 2 1 2 2 2 3 2 3 4 4 4 4 4 4 5 4 3 2 2 2
3 3 2 2 3 3 4 4 2 3 4 5 3 3 2 2 4 5 4 4 3 2 2 2 3 2 2 2 3 2 2 4 4 3 3 3 4 4 4 4 3 3 3 3
2 2 1 2 1 4 3 3 2 3 4 3 3 3 3 4 4 4 3 2 1 1 0 1 2 1 1 2 3 2 3 3 2 2 3 3 3 3 3 4 3 3 4 3
1 3 3 4 4 2 1 1 3 2 3 4 3 4 3 3 3 3 2 2 1 0 0 0 2 1 1 2 3 3 2 1 1 2 3 3 3 2 3 4 4 4 4 3
2 1 1 1 3 3 3 3 4 3 4 4 3 2 2 2 2 1 1 1 2 2 1 1 1 2 1 1 1 2 2 1 2 2 3 3 3 3 2 3 3 4 4 4
3 1 0 2 4 5 4 5 5 5 4 3 3 2 1 0 1 1 1 1 1 2 2 1 0 1 2 1 1 1 1 2 2 2 2 3 3 3 3 2 3 4 4 5
2 2 3 4 4 3 6 6 4 3 3 2 2 2 2 1 1 1 1 1 1 1 2 2 1 1 1 1 1 1 1 2 3 2 2 2 3 3 3 3 1 2 3 4
Wind_Direction
82 89 204 213 192 184 168 188 258 264 254 202 236 264 278 246 212 218 219 203 197 199 195 171 163 161 149 150 151 155 155 156 148 142 147 147 164 164 150 162 157 157 159 151
59 248 231 199 180 175 185 231 267 289 306 190 247 284 281 230 217 217 218 212 196 186 179 174 163 160 161 164 164 165 168 165 161 163 158 146 145 155 154 89 79 119 137 137
187 233 195 162 175 187 216 204 226 250 335 5 26 323 311 309 282 276 270 215 196 187 187 185 176 170 165 170 175 176 175 166 162 146 128 109 80 72 65 50 19 333 130 140
224 249 187 180 206 182 241 222 204 220 300 297 44 282 292 297 307 285 264 214 197 189 188 188 179 173 178 181 172 165 162 155 153 143 147 149 152 162 197 200 214 299 66 123
229 211 184 209 223 182 218 206 179 191 170 312 339 190 288 305 285 275 246 214 199 190 185 186 186 179 175 166 159 157 149 147 149 149 154 154 148 173 163 150 151 14 4 65
239 223 195 212 222 178 166 73 62 55 79 263 244 181 279 253 243 265 244 209 193 177 170 172 163 149 150 149 149 148 147 150 151 151 149 155 157 157 150 162 177 214 272 279
300 284 246 184 132 62 98 96 40 7 15 245 240 195 248 252 244 236 230 214 189 171 161 160 159 158 160 158 157 155 154 155 157 156 156 171 175 176 185 194 194 195 211 242
204 279 247 195 182 179 169 147 162 194 215 262 284 229 250 264 276 263 221 183 166 166 165 170 174 170 166 166 161 157 158 155 155 157 167 168 164 174 196 202 195 200 210 216
185 248 273 232 186 146 144 170 166 142 158 212 263 271 296 280 315 312 165 140 175 179 174 172 165 164 164 164 167 165 160 155 162 167 164 150 146 160 184 198 198 203 205 202
167 232 282 290 71 46 141 144 107 129 156 225 267 255 243 256 257 264 222 194 200 182 172 163 154 152 152 160 166 162 162 169 175 178 170 159 164 175 168 173 200 219 224 218
144 175 307 43 146 191 112 108 117 126 158 165 236 265 229 217 216 215 231 220 208 187 178 171 159 155 143 137 153 168 171 169 171 173 165 152 162 161 149 196 219 216 207 197
145 134 232 263 271 195 150 160 150 156 206 179 186 262 289 225 210 196 220 228 214 182 173 165 159 149 149 164 175 178 176 174 182 179 165 159 158 159 175 217 241 219 211 209
134 121 100 340 336 21 92 140 147 136 131 162 184 257 322 22 15 265 215 227 202 169 158 153 159 169 180 188 193 181 180 185 187 176 169 167 172 181 204 221 232 234 212 204
126 127 173 199 216 201 215 198 163 141 166 203 219 242 291 311 300 291 260 222 207 203 177 170 181 189 191 195 197 193 190 190 183 177 178 186 198 205 210 210 204 211 202 182
100 144 207 231 225 194 215 220 193 187 192 200 230 234 258 262 253 246 219 190 203 224 201 191 194 197 203 206 210 200 200 193 184 179 189 199 201 205 196 179 171 151 157 169
67 141 166 295 263 202 244 251 211 209 204 220 240 263 281 284 244 235 232 204 213 227 224 214 204 198 204 209 211 204 202 196 188 192 203 204 190 192 184 170 157 132 117 133
79 136 134 247 284 1 262 242 199 178 183 185 227 258 296 303 267 232 230 230 232 232 237 225 222 216 211 213 202 197 204 199 192 199 201 197 185 186 185 168 138 134 128 123
154 136 143 174 101 222 237 44 107 148 154 271 268 285 281 278 273 258 250 237 233 233 231 228 224 228 212 193 192 184 173 180 197 199 195 198 182 178 169 161 156 147 143 151
156 144 131 141 195 256 296 351 60 192 255 340 315 321 327 333 343 315 308 258 229 226 226 221 215 213 192 173 162 143 154 185 203 215 207 201 189 180 177 180 179 167 161 149
71 96 121 141 177 227 272 308 306 156 268 336 334 310 316 13 324 288 307 287 265 255 226 204 184 153 165 167 146 152 184 198 216 226 219 205 192 184 187 187 178 169 168 163
45 42 105 166 207 255 304 324 50 137 271 312 302 287 269 249 251 273 289 293 268 251 235 176 159 165 189 166 145 166 216 227 230 223 210 202 196 192 185 181 174 164 162 157
147 137 170 137 180 265 333 50 120 251 296 304 289 282 282 290 304 298 290 281 294 318 343 151 151 175 193 170 162 192 236 240 218 202 197 197 193 195 179 165 170 167 164 164
177 192 195 190 206 273 278 266 277 289 299 298 288 295 301 308 309 318 326 313 327 11 355 123 145 152 206 179 175 201 239 211 189 200 197 194 187 185 173 174 177 174 173 177
323 16 133 271 289 307 300 321 320 314 300 290 282 295 303 303 297 317 334 352 359 354 356 353 162 176 216 221 214 221 223 179 175 197 198 186 174 175 173 174 177 177 182 183
277 301 274 272 297 328 322 316 310 318 327 348 360 353 321 44 352 345 342 357 349 344 352 2 98 205 238 248 263 254 199 160 176 195 190 178 175 173 179 181 193 194 197 193
242 204 195 241 255 249 282 295 307 325 329 334 4 4 9 56 14 354 351 330 345 350 352 6 350 293 291 284 274 274 218 169 168 178 176 174 186 185 180 177 192 200 190 191
Height
1479 1485 1490 1488 1487 1488 1490 1494 1496 1491 1485 1488 1490 1489 1484 1482 1482 1481 1482 1482 1484 1485 1488 1490 1492 1494 1496 1498 1500 1502 1504 1506 1508 1509 1510 1511 1512 1513 1514 1515 1516 1516 1517 1518
1484 1487 1481 1481 1483 1486 1489 1494 1494 1489 1483 1486 1489 1488 1482 1480 1480 1480 1480 1480 1481 1483 1486 1488 1490 1492 1494 1496 1498 1501 1503 1504 1506 1508 1509 1510 1511 1512 1513 1514 1514 1515 1516 1516
1483 1480 1476 1480 1483 1487 1489 1492 1491 1490 1486 1485 1488 1491 1485 1480 1479 1479 1478 1479 1480 1481 1483 1486 1488 1490 1492 1494 1496 1498 1501 1503 1505 1506 1508 1509 1509 1510 1511 1512 1513 1514 1514 1515
1480 1475 1476 1479 1482 1484 1490 1482 1484 1486 1493 1499 1493 1504 1490 1482 1480 1477 1476 1476 1478 1479 1481 1483 1486 1488 1490 1492 1494 1497 1499 1501 1503 1505 1506 1507 1507 1508 1509 1510 1512 1513 1513 1513
1477 1473 1475 1478 1477 1477 1480 1477 1481 1485 1492 1499 1497 1503 1496 1484 1482 1477 1475 1475 1476 1477 1480 1482 1484 1486 1489 1491 1493 1496 1498 1500 1502 1503 1504 1505 1506 1507 1508 1509 1510 1511 1511 1512
1471 1469 1470 1471 1470 1472 1474 1480 1485 1493 1499 1508 1499 1504 1500 1487 1480 1475 1473 1473 1474 1476 1479 1481 1484 1486 1489 1491 1493 1494 1496 1498 1500 1501 1502 1504 1504 1505 1506 1507 1508 1509 1509 1510
1474 1469 1467 1466 1471 1473 1476 1491 1506 1509 1516 1511 1497 1499 1495 1477 1473 1472 1471 1472 1473 1475 1477 1480 1482 1484 1487 1489 1491 1493 1495 1496 1497 1499 1500 1502 1503 1504 1504 1505 1506 1506 1507 1507
1482 1481 1468 1465 1468 1474 1478 1486 1505 1513 1515 1509 1498 1498 1485 1472 1470 1470 1469 1471 1472 1474 1476 1478 1480 1482 1485 1487 1489 1491 1493 1495 1496 1497 1499 1500 1501 1502 1503 1504 1504 1504 1505 1505
1481 1479 1464 1462 1462 1467 1478 1484 1484 1499 1504 1509 1502 1491 1479 1470 1470 1469 1469 1469 1470 1472 1474 1476 1478 1481 1483 1485 1487 1489 1491 1493 1495 1496 1497 1498 1499 1500 1501 1502 1502 1503 1503 1504
1471 1476 1466 1463 1463 1466 1470 1478 1490 1500 1509 1510 1500 1493 1487 1474 1471 1469 1469 1469 1470 1471 1473 1475 1477 1479 1481 1483 1485 1487 1489 1491 1492 1494 1495 1496 1497 1498 1499 1500 1500 1500 1501 1501
1467 1476 1472 1467 1469 1472 1474 1479 1487 1497 1499 1506 1507 1496 1472 1470 1468 1468 1468 1468 1469 1471 1472 1474 1476 1478 1480 1482 1484 1486 1487 1489 1490 1492 1493 1494 1495 1496 1497 1497 1497 1498 1498 1499
1467 1476 1480 1472 1465 1464 1467 1474 1482 1493 1497 1499 1502 1493 1466 1465 1465 1466 1467 1467 1468 1470 1472 1473 1475 1477 1479 1480 1482 1484 1485 1487 1488 1490 1491 1492 1493 1494 1494 1495 1495 1495 1496 1496
1467 1476 1484 1481 1477 1470 1470 1472 1476 1483 1492 1498 1499 1488 1466 1465 1465 1465 1466 1466 1467 1468 1469 1471 1473 1475 1477 1479 1480 1482 1483 1485 1486 1487 1488 1489 1491 1491 1492 1492 1492 1492 1493 1494
1464 1475 1480 1483 1479 1473 1473 1472 1474 1480 1490 1491 1487 1479 1470 1467 1466 1465 1465 1465 1465 1466 1468 1469 1471 1472 1474 1476 1478 1479 1481 1483 1484 1485 1486 1487 1488 1489 1489 1490 1490 1490 1490 1491
1464 1473 1472 1470 1467 1468 1469 1470 1471 1475 1477 1481 1477 1474 1469 1466 1465 1464 1464 1464 1465 1465 1466 1468 1469 1471 1472 1474 1475 1477 1478 1480 1481 1482 1483 1484 1485 1486 1487 1488 1488 1488 1488 1489
1467 1472 1471 1470 1467 1467 1469 1467 1468 1469 1470 1472 1471 1471 1465 1464 1464 1464 1464 1464 1464 1464 1465 1465 1467 1469 1470 1471 1473 1474 1475 1477 1479 1480 1481 1482 1483 1484 1485 1485 1486 1486 1487 1487
1471 1473 1476 1477 1470 1468 1473 1468 1466 1467 1468 1470 1472 1470 1465 1464 1463 1463 1462 1463 1462 1463 1463 1464 1465 1466 1467 1469 1470 1471 1473 1474 1476 1477 1479 1480 1481 1482 1483 1484 1484 1485 1485 1486
1471 1474 1479 1480 1475 1480 1472 1464 1463 1465 1467 1467 1466 1465 1464 1462 1460 1460 1460 1460 1460 1461 1462 1462 1463 1463 1465 1467 1468 1470 1471 1472 1473 1475 1476 1478 1479 1480 1482 1483 1483 1483 1484 1485
1466 1472 1479 1482 1480 1474 1468 1464 1465 1467 1467 1466 1465 1464 1462 1461 1459 1458 1458 1459 1459 1459 1460 1460 1461 1462 1463 1464 1466 1467 1468 1470 1471 1472 1474 1475 1477 1478 1480 1481 1481 1482 1483 1484
1467 1469 1476 1479 1477 1476 1470 1463 1461 1464 1468 1464 1464 1463 1462 1461 1463 1459 1457 1457 1457 1457 1458 1458 1459 1460 1461 1462 1464 1465 1466 1467 1468 1470 1472 1473 1475 1476 1477 1479 1480 1481 1482 1483
1473 1474 1476 1477 1476 1472 1467 1463 1461 1470 1470 1463 1462 1461 1460 1460 1459 1457 1455 1455 1455 1456 1456 1456 1457 1458 1460 1461 1462 1463 1464 1465 1466 1468 1470 1471 1473 1474 1476 1477 1479 1480 1482 1483
1475 1477 1477 1478 1478 1476 1466 1464 1467 1467 1463 1461 1460 1459 1459 1457 1455 1453 1453 1453 1453 1454 1454 1455 1455 1457 1458 1459 1460 1460 1461 1463 1464 1466 1468 1469 1471 1472 1474 1476 1477 1478 1480 1481
1473 1473 1473 1473 1473 1467 1465 1464 1464 1463 1461 1460 1459 1458 1457 1455 1454 1452 1451 1452 1452 1453 1453 1453 1454 1455 1456 1457 1457 1458 1460 1461 1462 1464 1465 1467 1469 1470 1472 1473 1475 1477 1478 1479
1472 1470 1471 1470 1466 1465 1464 1463 1462 1461 1460 1458 1457 1457 1456 1454 1453 1452 1451 1451 1451 1452 1453 1453 1454 1454 1454 1455 1456 1457 1458 1459 1460 1462 1463 1465 1466 1468 1470 1472 1473 1475 1476 1478
1472 1470 1470 1469 1466 1463 1462 1462 1461 1459 1458 1457 1456 1456 1455 1453 1452 1452 1451 1451 1452 1452 1452 1452 1452 1453 1453 1454 1455 1456 1457 1457 1458 1460 1461 1462 1464 1466 1468 1470 1471 1473 1475 1476
1469 1470 1470 1468 1465 1465 1462 1460 1459 1458 1456 1456 1455 1455 1455 1454 1453 1452 1452 1452 1451 1451 1451 1452 1452 1452 1452 1453 1453 1454 1455 1456 1457 1458 1459 1460 1462 1464 1466 1468 1470 1472 1473 1475